Regional Weather Roundup
Issued by NWS

Home | Current Version | Previous Version | Text Only | Print | Product List | Glossary On
Versions: 1 2 3 4 5 6 7 8 9 10 11 12 13 14 15 16 17 18 19 20 21 22 23 24 25 26 27
000
ASUS45 KBOU 112110
RWRCO

WEATHER ROUNDUP FOR COLORADO
NATIONAL WEATHER SERVICE DENVER/BOULDER CO
200 PM MST MON DEC 11 2017

NOTE: "FAIR" INDICATES FEW OR NO CLOUDS BELOW 12000 FEET WITH NO
SIGNIFICANT WEATHER AND/OR OBSTRUCTIONS TO VISIBILITY.

COZ001>005-013-030-031-112200-
...NORTHWEST COLORADO...

CITY           SKY/WX    TMP DP  RH WIND       PRES   REMARKS
CRAIG          FAIR      37  14  38 CALM      30.50F
HAYDEN         FAIR      36  17  46 S5        30.50F
MEEKER         FAIR      51  -3  10 SW6       30.46F
RABBIT EARS PA FAIR      30   9  40 W9G23     30.53S WCI  22
STEAMBOAT SPGS FAIR      37  14  38 CALM      30.50S
WALDEN         FAIR      37   9  30 NW3       30.49R
$$

COZ006>008-011-112200-
...WEST CENTRAL VALLEYS...

CITY           SKY/WX    TMP DP  RH WIND       PRES   REMARKS
GRAND JUNCTION FAIR      47   3  16 CALM      30.47F
MONTROSE       FAIR      45  -1  14 VRB3      30.49F
EAGLE          FAIR      35   9  33 CALM      30.54F
RIFLE          FAIR      48   0  13 CALM      30.47F
DELTA          FAIR      50  -1  12 S3        30.47F
NUCLA          FAIR      45  -6  12 CALM      30.48F
$$

COZ017>023-064>068-112200-
...SOUTHWEST COLORADO...

CITY           SKY/WX    TMP DP  RH WIND       PRES   REMARKS
DURANGO        FAIR      51   4  14 W5        30.39F
CORTEZ         FAIR      46   1  15 SW6       30.41F
PAGOSA SPRINGS FAIR      55  -6   8 S6        30.40S
TELLURIDE      FAIR      52  -1  11 CALM      30.51S
WOLF CREEK PAS FAIR      37  -4  17 CALM      30.62S
$$

COZ009-010-012-014-032>034-037-058>063-112200-
...CENTRAL COLORADO...

CITY           SKY/WX    TMP DP  RH WIND       PRES   REMARKS
ASPEN          FAIR      51  -3  10 N10       30.47F
BUENA VISTA    FAIR      54  -3   9 NW18G24   30.38F
COPPER MTN     NOT AVBL
BERTHOUD PASS  FAIR      21  10  63 NW41G49   30.47F HAZE    WCI   0
COTTONWOOD PAS FAIR      50 -11   7 W15G32    30.45F
GUNNISON       FAIR      40  -1  18 CALM      30.49F
KREMMLING      FAIR      34  18  51 CALM      30.54F
LEADVILLE      FAIR      40   1  19 N9G26     30.47F
MONARCH PASS   FAIR      34  -6  18 SW17G25   30.65R WCI  23
SALIDA         FAIR      57  -6   7 N5        30.44S
SUNLIGHT       FAIR      34   1  25 NW6       30.60F WCI  29
WILKERSON PASS FAIR      37 -15  10 N17G33    30.50F
$$

COZ069>075-112200-
...SAN LUIS VALLEY/SANGRE DE CRISTO MOUNTAINS...

CITY           SKY/WX    TMP DP  RH WIND       PRES   REMARKS
ALAMOSA        FAIR      50  -8   9 W3        30.40F
DEL NORTE      FAIR      46   0  14 E7        30.42F
LA VETA PASS   FAIR      43   0  16 SW14        N/A
SAGUACHE       FAIR      46  -2  13 S6        30.41F
$$

COZ035-036-038>040-112200-
...NORTHERN COLORADO FRONT RANGE...

CITY           SKY/WX    TMP DP  RH WIND       PRES   REMARKS
DENVER INTL AP FAIR      57   2  11 NE16      30.32S
DMNS CITY PARK NOT AVBL
AURORA         MOSUNNY   56   2  11 NE14      30.34R
FRONT RANGE AP MOSUNNY   57   3  11 N16G26    30.34S
ERIE MUNI ARPT FAIR      59  -3   8 SE3       30.37S
BOULDER MUN AP FAIR      57   9  14 E6        30.32S
CENTENNIAL     FAIR      56   4  12 NE12      30.33R
BROOMFIELD     MOSUNNY   57   5  12 E9        30.33S
FORT COLLINS   FAIR      56   7  14 S7        30.33R
LONGMONT       FAIR      58   7  13 CALM      30.35R
$$

COZ041-046-047-076>085-087-088-112200-
...PIKES PEAK/PALMER DIVIDE AND SOUTHERN FOOTHILLS...

CITY           SKY/WX    TMP DP  RH WIND       PRES   REMARKS
COLO. SPRINGS  FAIR      56  -3   9 SE9       30.32F
A. F. ACADEMY  FAIR      59  -8   6 NE12      30.31F
SCHRIEVER AFB  FAIR      54  -3   9 S8        30.33S
CHEYENNE MTN   FAIR      53  -3  10 E5        30.29S
ELLICOTT         N/A    N/A N/A N/A SE8       30.31S
FALCON         FAIR      57  -6   7 S6        30.34S
FORT CARSON    FAIR      57 -10   6 SE7       30.30S
LIMON          FAIR      54   4  13 N24G31    30.31F
MONUMENT HILL  FAIR      52  -2  11 E14       30.36S
CANON CITY     FAIR      63   3   9 E8G17     30.27S
WALSENBURG     FAIR      64   3   9 NE12      30.28R
TRINIDAD       FAIR      59   0   9 E7        30.29S
$$

COZ042>045-048>051-090-091-112200-
...NORTHEAST COLORADO...

CITY           SKY/WX    TMP DP  RH WIND       PRES   REMARKS
GREELEY ARPT   FAIR      60   8  12 N21G31    30.31S
AKRON          FAIR      52   9  17 N31G41    30.32S
BURLINGTON     FAIR      57  12  17 N21G36    30.28
WRAY           FAIR      57   7  13 N29G37    30.30R
YUMA           FAIR      52  10  19 NW25G32   30.31R
STERLING       FAIR      54  12  19 N26G36    30.31S
HOLYOKE        FAIR      54   9  16 NW21G40   30.29R
FORT MORGAN    FAIR      55   5  13 N21G31    30.33R
$$

COZ086-089-092>099-112200-
...SOUTHEAST COLORADO...

CITY           SKY/WX    TMP DP  RH WIND       PRES   REMARKS
PUEBLO           N/A     60   0   9 E14       30.27F
LA JUNTA       FAIR      61   4  10 E10       30.28F
LAMAR          FAIR      63   7  11 N15       30.26F
SPRINGFIELD      N/A     58   8  13 N18G26    30.28S
$$




USA.gov is the U.S. government's official web portal to all federal, state and local government web resources and services.